Location: Orange
(33.2833°S, 149.1000°E)
Time: 08:41:12
(UTC+11:00)

Envisat - Visible Passes

Search period start: 05 October 2024 23:00
Search period end: 16 October 2024 00:00
Orbit: 762 x 764 km, 98.3° (Epoch: 05 October)

Date Brightness Start Highest point End Pass type
(mag) Time Alt. Az. Time Alt. Az. Time Alt. Az.
07 Oct 5.6 03:27:25 13° S 03:27:25 13° S 03:27:55 10° S visible
08 Oct 5.8 02:49:20 13° SSE 02:49:20 13° SSE 02:49:58 10° S visible
09 Oct 5.4 03:51:22 13° SSW 03:51:22 13° SSW 03:51:51 10° SSW visible
10 Oct 5.4 03:13:17 16° S 03:13:17 16° S 03:14:22 10° S visible
11 Oct 5.8 02:35:11 14° SSE 02:35:11 14° SSE 02:36:06 10° SSE visible
11 Oct 5.4 04:15:20 11° SW 04:15:20 11° SW 04:15:28 10° SSW visible
12 Oct 5.1 03:37:13 18° SSW 03:37:13 18° SSW 03:38:26 10° SSW visible
13 Oct 5.3 02:59:07 19° SSE 02:59:07 19° SSE 03:00:42 10° S visible
14 Oct 5.8 02:21:02 13° SE 02:21:02 13° SE 02:22:02 10° SSE visible
14 Oct 5.1 04:01:10 16° SSW 04:01:10 16° SSW 04:02:13 10° SSW visible
15 Oct 4.9 03:23:04 23° S 03:23:04 23° S 03:24:55 10° S visible
